GRIVA EGNE-LFRH

Flight info

Callsign GRIVA
Flight time N/A
Altitude 27000
Route SAPCO UY53 DTY/N0313F290 UM605 SILVA/N0313F280 Q41 SAM/N0314F290 M195 LORKU DCT ERCOZ
Aircraft TBM8/L-SDFGRWY/S

Departure

Time 2026-04-15 08:32
Airport Retford Gamston Airport (EGNE)

Arrival

Time N/A
Airport Lorient South Brittany (Bretagne Sud) Airport (LFRH)
Time Latitude Longitude Altitude Speed Heading
2026-04-15 08:31 53.23415 -1.03070 5803 ft 190 kts 335°
2026-04-15 08:32 53.24782 -1.03561 5913 ft 215 kts 357°
2026-04-15 08:32 53.26166 -1.03519 5951 ft 232 kts
2026-04-15 08:32 53.27717 -1.02829 5986 ft 247 kts 18°
2026-04-15 08:32 53.29249 -1.01950 5996 ft 257 kts 18°
2026-04-15 08:33 53.30964 -1.00956 5991 ft 264 kts 19°
2026-04-15 08:33 53.32691 -0.99825 5991 ft 268 kts 22°
2026-04-15 08:33 53.34312 -0.98315 5975 ft 268 kts 46°
2026-04-15 08:33 53.35180 -0.95652 5975 ft 259 kts 84°
2026-04-15 08:34 53.34945 -0.92800 5980 ft 244 kts 123°
2026-04-15 08:34 53.34263 -0.91319 5975 ft 236 kts 142°
2026-04-15 08:34 53.33001 -0.90067 5981 ft 228 kts 166°
2026-04-15 08:34 53.31511 -0.89882 5979 ft 223 kts 191°
2026-04-15 08:35 53.30190 -0.90574 5985 ft 222 kts 201°
2026-04-15 08:35 53.28733 -0.91454 5981 ft 223 kts 200°
2026-04-15 08:35 53.27273 -0.92318 6029 ft 220 kts 200°
2026-04-15 08:35 53.25909 -0.93141 6637 ft 198 kts 200°
2026-04-15 08:36 53.24678 -0.93885 7287 ft 179 kts 200°
2026-04-15 08:36 53.23558 -0.94563 7965 ft 164 kts 200°
2026-04-15 08:36 53.22521 -0.95190 8621 ft 153 kts 200°
2026-04-15 08:36 53.21527 -0.95791 9166 ft 152 kts 200°
2026-04-15 08:37 53.20533 -0.96390 9650 ft 152 kts 200°
2026-04-15 08:37 53.19536 -0.96990 10098 ft 153 kts 200°
2026-04-15 08:37 53.18575 -0.97567 10524 ft 154 kts 200°
2026-04-15 08:37 53.17565 -0.98173 10958 ft 156 kts 201°
2026-04-15 08:38 53.16705 -0.98690 11309 ft 157 kts 200°
2026-04-15 08:38 53.15774 -0.99248 11742 ft 154 kts 201°
2026-04-15 08:38 53.14769 -0.99849 12222 ft 153 kts 201°
2026-04-15 08:38 53.13764 -1.00452 12657 ft 154 kts 201°
2026-04-15 08:39 53.12754 -1.01057 13084 ft 155 kts 201°
2026-04-15 08:39 53.11734 -1.01667 13508 ft 157 kts 201°
2026-04-15 08:39 53.10746 -1.02257 13899 ft 158 kts 201°
2026-04-15 08:39 53.09750 -1.02851 14269 ft 158 kts 201°
2026-04-15 08:40 53.08698 -1.03479 14664 ft 158 kts 201°
2026-04-15 08:40 53.07663 -1.04096 15047 ft 158 kts 201°
2026-04-15 08:40 53.06753 -1.04640 15388 ft 159 kts 201°
2026-04-15 08:40 53.05711 -1.05261 15782 ft 159 kts 201°
2026-04-15 08:41 53.04668 -1.05882 16159 ft 160 kts 201°
2026-04-15 08:41 53.03619 -1.06507 16549 ft 160 kts 201°
2026-04-15 08:41 53.02591 -1.07119 16920 ft 161 kts 201°
2026-04-15 08:41 53.01548 -1.07741 17286 ft 161 kts 201°
2026-04-15 08:42 53.00491 -1.08369 17661 ft 162 kts 201°
2026-04-15 08:42 52.99523 -1.08954 18002 ft 162 kts 203°
2026-04-15 08:42 52.98603 -1.09665 18312 ft 163 kts 194°
2026-04-15 08:42 52.97526 -1.09691 18608 ft 166 kts 182°
2026-04-15 08:43 52.96345 -1.09597 18810 ft 175 kts 181°
2026-04-15 08:43 52.95088 -1.09481 18907 ft 187 kts 181°
2026-04-15 08:43 52.93738 -1.09353 18953 ft 201 kts 181°
2026-04-15 08:43 52.92437 -1.09230 18973 ft 212 kts 181°
2026-04-15 08:44 52.90929 -1.09087 18985 ft 222 kts 181°
2026-04-15 08:44 52.89353 -1.08945 18988 ft 231 kts 181°
2026-04-15 08:44 52.87760 -1.08804 18987 ft 237 kts 181°
2026-04-15 08:44 52.86097 -1.08657 18990 ft 243 kts 181°
2026-04-15 08:45 52.84393 -1.08509 18988 ft 247 kts 181°
2026-04-15 08:45 52.82669 -1.08415 18983 ft 248 kts 187°
2026-04-15 08:45 52.81713 -1.08902 19180 ft 238 kts 206°
2026-04-15 08:45 52.79906 -1.10565 19800 ft 220 kts 210°
2026-04-15 08:46 52.78623 -1.11838 20255 ft 211 kts 210°
2026-04-15 08:46 52.77378 -1.13112 20543 ft 211 kts 211°
2026-04-15 08:46 52.76262 -1.14269 20771 ft 211 kts 211°
2026-04-15 08:46 52.75020 -1.15570 21027 ft 212 kts 211°
2026-04-15 08:47 52.73794 -1.16863 21268 ft 212 kts 211°
2026-04-15 08:47 52.72550 -1.18182 21514 ft 213 kts 211°
2026-04-15 08:47 52.71301 -1.19504 21752 ft 213 kts 211°
2026-04-15 08:47 52.70023 -1.20760 21908 ft 213 kts 208°
2026-04-15 08:48 52.69197 -1.21530 22305 ft 203 kts 208°
2026-04-15 08:48 52.68004 -1.22629 22923 ft 191 kts 208°
2026-04-15 08:49 52.67389 -1.23197 23199 ft 187 kts 208°
2026-04-15 08:49 52.66262 -1.24236 23526 ft 186 kts 208°
2026-04-15 08:49 52.65136 -1.25280 23800 ft 185 kts 208°
2026-04-15 08:49 52.64164 -1.26186 24029 ft 185 kts 208°
2026-04-15 08:50 52.63040 -1.27237 24277 ft 185 kts 208°
2026-04-15 08:50 52.61929 -1.28279 24516 ft 186 kts 208°
2026-04-15 08:50 52.60821 -1.29319 24888 ft 179 kts 208°
2026-04-15 08:50 52.59744 -1.30332 25158 ft 178 kts 208°
2026-04-15 08:51 52.58685 -1.31328 25564 ft 170 kts 208°
2026-04-15 08:51 52.57731 -1.32226 25907 ft 164 kts 208°
2026-04-15 08:51 52.56748 -1.33149 26169 ft 163 kts 208°
2026-04-15 08:51 52.55760 -1.34075 26418 ft 164 kts 208°
2026-04-15 08:52 52.54761 -1.34969 26652 ft 163 kts 203°
2026-04-15 08:52 52.53650 -1.35265 26850 ft 171 kts 182°
2026-04-15 08:52 52.52466 -1.34580 26886 ft 192 kts 163°
2026-04-15 08:52 52.51285 -1.33664 26903 ft 199 kts 167°
2026-04-15 08:53 52.50013 -1.32827 26910 ft 208 kts 168°
2026-04-15 08:53 52.48642 -1.31955 26914 ft 217 kts 167°
2026-04-15 08:53 52.47206 -1.31031 26922 ft 226 kts 167°
2026-04-15 08:53 52.46346 -1.30468 26927 ft 230 kts 166°
2026-04-15 08:54 52.44814 -1.29451 26933 ft 238 kts 166°
2026-04-15 08:54 52.43266 -1.28412 26937 ft 244 kts 166°
2026-04-15 08:54 52.41681 -1.27341 27010 ft 249 kts 165°
2026-04-15 08:54 52.40065 -1.26246 27007 ft 254 kts 165°
2026-04-15 08:55 52.38582 -1.25241 27015 ft 257 kts 165°
2026-04-15 08:55 52.36916 -1.24110 27013 ft 261 kts 165°
2026-04-15 08:55 52.35232 -1.22969 27015 ft 264 kts 165°
2026-04-15 08:55 52.33527 -1.21816 27015 ft 266 kts 165°
2026-04-15 08:56 52.31817 -1.20660 27016 ft 268 kts 165°
2026-04-15 08:56 52.30120 -1.19515 27022 ft 270 kts 165°
2026-04-15 08:56 52.28525 -1.18440 27021 ft 271 kts 165°
2026-04-15 08:56 52.26768 -1.17257 27018 ft 273 kts 165°
2026-04-15 08:57 52.25148 -1.16167 27017 ft 274 kts 165°
2026-04-15 08:57 52.23386 -1.14982 27027 ft 275 kts 165°
2026-04-15 08:57 52.21612 -1.13792 27016 ft 276 kts 165°
2026-04-15 08:57 52.20143 -1.12807 27015 ft 276 kts 165°